McKinleyville, CA

7:51 AM PST on February 20, 2017 (GMT -0800)
Arcata

Weather History for KACV - May, 2013

Change the Weather History Date:

Tuesday, May 14, 2013

  Actual Average Record
Temperature  
Mean Temperature 50 °F -  
Max Temperature 57 °F 58 °F 81 °F (2014)
Min Temperature 42 °F 43 °F 37 °F (2007)
Degree Days  
Heating Degree Days 16    
Moisture  
Dew Point 46 °F    
Average Humidity 85    
Maximum Humidity 100    
Minimum Humidity 62    
Precipitation  
Precipitation 0.00 in - - ()
Sea Level Pressure  
Sea Level Pressure 30.16 in    
Wind  
Wind Speed 6 mph (NNW)    
Max Wind Speed 20 mph    
Max Gust Speed 28 mph    
Visibility 10 miles    
Events      
Averages and records for this station are not official NWS values.
T = Trace of Precipitation, MM = Missing Value Source: NWS Daily Summary

Daily Weather History Graph

Daily Weather History Graph

Search for Another Location

Airport or City:

Trip Planner

Search our weather history database for the weather conditions in past years. The results will help you decide how hot, cold, wet, or windy it might be!

Date:

Astronomy

May. 14, 2013 Rise Set
Actual Time 5:59 AM PDT 8:26 PM PDT
Civil Twilight 5:28 AM PDT 8:58 PM PDT
Nautical Twilight 4:49 AM PDT 9:36 PM PDT
Astronomical Twilight 4:06 AM PDT 10:20 PM PDT
Moon 9:44 AM PDT (5/14) No Moon Set
Length of Visible Light 15h 29m
Length of Day
14h 27m
Waxing Crescent, 19% of the Moon is Illuminated
May 14
Waxing Crescent
May 17
First Quarter
May 24
Full
May 31
Last Quarter
Jun 8
New

Hourly Weather History & Observations

Time (PDT) Temp. Windchill Dew Point Humidity Pressure Visibility Wind Dir Wind Speed Gust Speed Precip Events Conditions
12:53 AM 50.0 °F - 48.0 °F 93% 30.20 in 10.0 mi North 4.6 mph - N/A   Clear
1:53 AM 48.9 °F - 46.9 °F 93% 30.19 in 10.0 mi North 4.6 mph - N/A   Clear
2:53 AM 46.0 °F 44.8 °F 45.0 °F 96% 30.18 in 10.0 mi NNE 3.5 mph - N/A   Clear
3:53 AM 43.0 °F - 42.1 °F 97% 30.15 in 10.0 mi Calm Calm - N/A   Clear
4:31 AM 42.8 °F - 42.8 °F 100% 30.13 in 8.0 mi Calm Calm - N/A   Scattered Clouds
4:40 AM 44.6 °F - 44.6 °F 100% 30.13 in 9.0 mi Calm Calm - N/A   Mostly Cloudy
4:53 AM 46.0 °F - 45.0 °F 96% 30.15 in 10.0 mi Calm Calm - N/A   Overcast
5:43 AM 44.6 °F - 42.8 °F 93% 30.12 in 10.0 mi Calm Calm - N/A   Scattered Clouds
5:53 AM 43.0 °F - 43.0 °F 100% 30.14 in 10.0 mi Calm Calm - N/A   Scattered Clouds
6:04 AM 42.8 °F - 42.8 °F 100% 30.13 in 10.0 mi Calm Calm - N/A   Mostly Cloudy
6:53 AM 48.0 °F - 46.9 °F 96% 30.16 in 10.0 mi Calm Calm - N/A   Overcast
7:53 AM 50.0 °F - 48.9 °F 96% 30.17 in 10.0 mi Calm Calm - N/A   Overcast
8:53 AM 53.1 °F - 48.9 °F 86% 30.16 in 10.0 mi NW 3.5 mph - N/A   Mostly Cloudy
9:50 AM 55.4 °F - 50.0 °F 82% 30.14 in 10.0 mi NW 10.4 mph - N/A   Scattered Clouds
9:53 AM 54.0 °F - 48.9 °F 83% 30.16 in 10.0 mi NW 11.5 mph - N/A   Partly Cloudy
10:53 AM 55.0 °F - 48.9 °F 80% 30.16 in 10.0 mi NNW 15.0 mph - N/A   Clear
11:53 AM 55.9 °F - 50.0 °F 80% 30.17 in 10.0 mi NNW 13.8 mph - N/A   Clear
12:53 PM 57.0 °F - 50.0 °F 77% 30.15 in 10.0 mi NNW 18.4 mph - N/A   Clear
1:53 PM 57.9 °F - 50.0 °F 75% 30.15 in 10.0 mi NNW 19.6 mph 27.6 mph N/A   Clear
2:53 PM 57.0 °F - 48.0 °F 72% 30.15 in 10.0 mi NNW 19.6 mph 26.5 mph N/A   Clear
3:53 PM 57.0 °F - 48.0 °F 72% 30.16 in 10.0 mi NNW 19.6 mph 27.6 mph N/A   Clear
4:53 PM 57.9 °F - 46.0 °F 65% 30.16 in 10.0 mi NNW 19.6 mph 24.2 mph N/A   Clear
5:53 PM 57.0 °F - 44.1 °F 62% 30.17 in 10.0 mi NNW 15.0 mph - N/A   Clear
6:53 PM 55.0 °F - 45.0 °F 69% 30.17 in 10.0 mi NNW 16.1 mph 21.9 mph N/A   Clear
7:53 PM 53.1 °F - 43.0 °F 69% 30.17 in 10.0 mi NNW 10.4 mph - N/A   Clear
8:53 PM 50.0 °F - 46.0 °F 86% 30.18 in 10.0 mi North 9.2 mph - N/A   Clear
9:53 PM 48.9 °F - 45.0 °F 86% 30.19 in 10.0 mi North 5.8 mph - N/A   Partly Cloudy
10:53 PM 48.9 °F - 45.0 °F 86% 30.19 in 10.0 mi NE 4.6 mph - N/A   Clear
11:53 PM 46.0 °F - 43.0 °F 89% 30.18 in 10.0 mi Calm Calm - N/A   Clear